TIME,DELAY(SENSOR),PRES,OXYGEN,RAWTEMP,T(OPTODE),TCPHASE,FLUOR,BETA(BETA700),BETA(BETA412),BETA(BETA440),CDOM,C(CSC),ED(ED412.20),ED(ED444.00),ED(ED489.60),ED(ED554.30),LU(LU412.10),LU(LU443.90),LU(LU489.70),LU(LU554.70),COMP,TILTX,TILTY,CHECK
1364789490,5808,868.1199951171875000,35.5665016174316400,563.6569824218750000,4.3725028038024900,56.2299995422363300,55,100,99,79,82,15505,0,0,0,0,2147120539,2147771520,2147566674,2147572818,3325,2,13,5347
1364793086,5807,924.6300048828125000,40.1923599243164060,570.2384033203125000,4.1681518554687500,55.5869102478027340,54,97,100,78,82,15491,0,0,0,0,2147123904,2147774290,2147565595,2147572251,971,2,13,47147
1364796686,5812,931.6500244140625000,40.9413986206054700,570.6232299804688000,4.1561951637268070,55.4795913696289060,55,97,100,78,81,15503,0,0,0,0,2147126381,2147772461,2147571117,2147571300,3112,3,13,62268
1364800286,5808,966.0399780273438000,41.5013313293457000,573.9044189453125000,4.0541667938232420,55.4396705627441400,54,97,100,77,82,15500,0,0,0,0,2147120941,2147776521,2147569709,2147569755,121,2,13,50368
1364803886,5810,970.9099731445312000,41.1925697326660160,573.9077758789062000,4.0540599822998050,55.4791717529296900,56,97,100,77,81,15499,0,0,0,0,2147123090,2147770413,2147574491,2147571766,3344,2,13,1042
1364807486,5807,977.9099731445312000,41.7319297790527340,573.8049926757812000,4.0572571754455570,55.3984298706054700,55,97,99,79,82,15500,0,0,0,0,2147123410,2147771611,2147572077,2147569280,234,2,13,12191
1364811086,5811,979.4099731445312000,40.5506286621093750,573.6583251953125000,4.0618228912353520,55.5741996765136700,55,101,99,77,82,15498,0,0,0,0,2147124324,2147775414,2147568502,2147569252,806,2,13,24907
1364814686,5809,984.7100219726562000,41.0699806213378900,573.8137207031250000,4.0569877624511720,55.4954490661621100,54,98,102,78,80,15499,0,0,0,0,2147122029,2147772589,2147571748,2147572690,319,2,13,64873
1364818286,5812,982.8900146484375000,40.2837486267089840,573.2794799804688000,4.0736007690429690,55.6096801757812500,55,99,100,78,81,15498,0,0,0,0,2147125467,2147770313,2147571885,2147571227,433,2,13,38002
1364821886,5809,986.3699951171875000,40.4137496948242200,573.7045288085938000,4.0603852272033690,55.5940284729003900,56,98,99,78,82,15495,0,0,0,0,2147122368,2147772589,2147571126,2147570523,44,3,13,46279
1364825486,5810,993.7299804687500000,39.8467903137207000,572.8154296875000000,4.0880360603332520,55.6697196960449200,56,98,100,77,82,15494,0,0,0,0,2147118262,2147766619,2147573385,2147570962,66,3,13,2897
1364829086,5813,992.7399902343750000,40.0805206298828100,571.7445068359375000,4.1213359832763670,55.6190414428710940,55,97,100,77,82,15490,0,0,0,0,2147119460,2147770358,2147572114,2147571739,22,3,13,6037
1364832686,5808,991.7700195312500000,40.0869789123535160,571.8707885742188000,4.1174111366271970,55.6243400573730500,55,100,100,78,80,15491,0,0,0,0,2147125184,2147775140,2147570825,2147572918,3490,2,13,52974
1364836286,5812,993.7000122070312000,39.8639602661132800,572.8549804687500000,4.0868067741394040,55.6658592224121100,56,97,99,78,82,15491,0,0,0,0,2147119414,2147776256,2147568064,2147568128,79,2,13,44046
1364839886,5808,981.1199951171875000,39.9950599670410160,573.8272705078125000,4.0565619468688965,55.6590690612793000,55,98,99,79,82,15490,0,0,0,0,2147122176,2147769682,2147572361,2147569462,3424,2,13,32006
1364843486,5808,983.8300170898438000,41.1575813293457000,574.4738159179688000,4.0364508628845215,55.4908103942871100,54,98,101,78,81,15489,0,0,0,0,2147125366,2147773312,2147570742,2147573312,3557,2,13,17510
1364847086,5810,981.6300048828125000,40.8009681701660160,574.6350708007812000,4.0314311981201170,55.5427513122558600,54,97,98,77,82,15492,0,0,0,0,2147120969,2147773357,2147570441,2147575241,169,2,13,39393
1364850686,5810,988.8699951171875000,40.8859901428222660,573.9951782226562000,4.0513401031494140,55.5258598327636700,54,98,100,77,83,15488,0,0,0,0,2147121014,2147773147,2147571492,2147569152,74,2,13,7940
1364854286,5813,987.5900268554688000,40.8370590209960940,573.7542724609375000,4.0588359832763670,55.5364608764648440,55,97,100,79,82,15490,0,0,0,0,2147126244,2147769490,2147570304,2147573339,3391,2,13,16647
1364857886,5809,979.2700195312500000,41.0059700012207000,574.5507812500000000,4.0340561866760250,55.5187187194824200,54,98,100,78,81,15489,0,0,0,0,2147125184,2147770816,2147569728,2147567981,322,2,13,43230
1364861486,5810,986.1199951171875000,40.9309310913085940,574.5270996093750000,4.0347919464111330,55.5261688232421900,55,105,101,78,83,15487,0,0,0,0,2147122834,2147774646,2147570980,2147571684,55,2,13,13911
1364865086,5809,993.9500122070312000,40.5538787841796900,573.1436157226562000,4.0778288841247560,55.5699996948242200,55,98,100,79,83,15486,0,0,0,0,2147122102,2147771373,2147570752,2147570724,3564,3,13,44248
1364868686,5809,993.7899780273438000,40.0224685668945300,573.7022705078125000,4.0604500770568850,55.6543197631835940,54,98,99,78,83,15486,0,0,0,0,2147120521,2147772928,2147572123,2147569938,3593,2,13,24192
1364872286,5809,988.4199829101562000,40.4465713500976560,573.8610229492188000,4.0555148124694820,55.5908813476562500,55,97,100,78,82,15485,0,0,0,0,2147124736,2147777115,2147569636,2147570093,882,2,13,4595
1364875886,5811,982.6799926757812000,41.0683593750000000,574.2694091796875000,4.0428099632263180,55.5049514770507800,54,98,100,78,83,15483,0,0,0,0,2147122148,2147774838,2147569563,2147569517,3483,2,13,30494
1364879486,5808,988.7999877929688000,41.5715713500976560,574.3629760742188000,4.0398960113525390,55.4295082092285160,55,98,99,79,81,15488,0,0,0,0,2147125220,2147769380,2147570066,2147569197,2849,2,13,26125
1364883086,5809,993.7000122070312000,41.8198394775390600,574.2437133789062000,4.0436081886291500,55.3940315246582000,55,98,101,77,82,15486,0,0,0,0,2147122861,2147772470,2147571117,2147568274,3228,2,13,51942
1364886686,5809,993.1099853515625000,41.1100997924804700,574.3673706054688000,4.0397610664367680,55.4990806579589840,56,98,100,78,81,15483,0,0,0,0,2147121408,2147774555,2147568301,2147567222,186,2,13,9210
1364890286,5811,990.4699707031250000,41.7109909057617200,574.4138183593750000,4.0383191108703610,55.4140396118164060,54,99,101,79,81,15484,0,0,0,0,2147122816,2147778002,2147564425,2147570642,3272,2,13,42844
1364893886,5809,987.2000122070312000,40.8541297912597660,574.2965698242188000,4.0419640541076660,55.5327301025390600,55,96,100,77,82,15485,0,0,0,0,2147120914,2147773449,2147571483,2147569280,3562,2,13,19640
1364897486,5813,982.5499877929688000,41.4915008544921900,574.4838867187500000,4.0361371040344240,55.4443702697753900,56,98,99,79,82,15484,0,0,0,0,2147124672,2147772864,2147572370,2147569280,3403,2,13,1786
1364901086,5810,990.7199707031250000,42.1787414550781250,574.3560180664062000,4.0401167869567870,55.3453216552734400,54,98,100,78,83,15485,0,0,0,0,2147122422,2147770788,2147571995,2147570825,3444,2,13,48925
1364904686,5809,988.5999755859375000,41.4096908569335940,574.4948730468750000,4.0357909202575680,55.4569282531738300,55,98,100,78,82,15484,0,0,0,0,2147122093,2147774107,2147568950,2147572589,3488,2,13,50127
1364908286,5810,992.7600097656250000,41.2379913330078100,574.4979858398438000,4.0356960296630860,55.4788093566894500,55,97,99,78,81,15482,0,0,0,0,2147117312,2147773357,2147571017,2147570569,88,2,13,56361
1364911886,5812,998.1300048828125000,40.9416007995605500,573.7697753906250000,4.0583529472351070,55.5143089294433600,55,98,101,78,83,15485,0,0,0,0,2147125467,2147774738,2147569252,2147574125,71,2,13,12855
1364915486,5809,996.0100097656250000,40.6818084716796900,574.2647705078125000,4.0429530143737790,55.5604705810546900,56,98,100,77,82,15482,0,0,0,0,2147122413,2147776493,2147572562,2147570157,258,3,13,56920
1364919086,5809,995.4400024414062000,39.9299011230468750,574.1193237304688000,4.0474781990051270,55.6683006286621100,54,97,102,78,81,15479,0,0,0,0,2147125760,2147771364,2147566509,2147571200,108,3,13,16288
1364922686,5811,993.2999877929688000,41.2441787719726560,574.3892822265625000,4.0390801429748535,55.4760818481445300,55,97,99,77,82,15481,0,0,0,0,2147121773,2147771922,2147570733,2147569965,144,2,13,50598
1364926286,5808,996.3099975585938000,41.1860618591308600,574.2238769531250000,4.0442261695861820,55.4821701049804700,54,99,99,78,82,15481,0,0,0,0,2147119990,2147773979,2147567341,2147571876,3402,3,13,45755
1364929886,5810,992.3499755859375000,40.5910911560058600,574.4155273437500000,4.0382628440856930,55.5742607116699200,56,97,99,78,81,15482,0,0,0,0,2147120466,2147769938,2147568320,2147567817,230,2,13,7885
1364933486,5808,991.0300292968750000,41.0043487548828100,574.4191894531250000,4.0381488800048830,55.5128211975097660,56,99,100,77,83,15478,0,0,0,0,2147120493,2147771419,2147567122,2147571474,379,3,13,326
1364934356,5809,989.9699707031250000,41.2471199035644500,574.3132934570312000,4.0414447784423830,55.4749488830566400,54,98,100,78,82,15480,0,0,0,0,2147124571,2147774637,2147572534,2147571163,3213,2,13,27367
